This demonstration page uses our WeatherBlox Daily Observations layout. Learn more.

Left ArrowRight Arrow

34.02893, -84.19858

Hourly Observations for January 10, 2018

Temp ( °F °C ) Dew Point ( °F °C ) Humidity (%) Winds ( mph kmh ) Pressure ( in mb ) Visibility ( mi km ) Precip ( " mm )
12:32 am 00:32 Cloudy 53 11.7 48 8.9 83 83 Calm 30.21 1023 10 16 0.00 0.00
12:53 am 00:53 Cloudy 53 11.7 49 9.4 86 86 ENE 3 6 30.22 1023 10 16 0.00 0.00
1:29 am 01:29 Cloudy 52 11.1 49 9.4 89 89 Calm 30.21 1023 10 16 0.00 0.00
1:53 am 01:53 Cloudy 52 11.1 49 9.4 89 89 ENE 3 6 30.20 1023 10 16 0.00 0.00
2:19 am 02:19 Cloudy 53 11.7 49 9.4 86 86 Calm 30.21 1023 10 16 0.00 0.00
2:53 am 02:53 Cloudy 53 11.7 50 10 89 89 Calm 30.20 1023 10 16 0.00 0.00
3:11 am 03:11 Cloudy 53 11.7 50 10 89 89 ENE 5 7 30.21 1023 10 16 0.00 0.00
3:22 am 03:22 Cloudy 53 11.7 50 10 89 89 ENE 6 9 30.21 1023 10 16 0.00 0.00
3:34 am 03:34 Cloudy 53 11.7 50 10 89 89 VRB 6 9 30.21 1023 10 16 0.00 0.00
3:53 am 03:53 Cloudy 53 11.7 50 10 89 89 VRB 3 6 30.20 1023 10 16 0.00 0.00
4:53 am 04:53 Cloudy 53 11.7 49 9.4 86 86 ENE 7 11 30.22 1023 10 16 0.00 0.00
5:53 am 05:53 Cloudy 53 11.7 49 9.4 86 86 VRB 6 9 30.22 1024 10 16 0.00 0.00
6:53 am 06:53 Cloudy 53 11.7 49 9.4 86 86 VRB 3 6 30.24 1024 10 16 0.00 0.00
7:10 am 07:10 Cloudy 53 11.7 49 9.4 86 86 VRB 6 9 30.24 1024 10 16 0.00 0.00
7:25 am 07:25 Cloudy 53 11.7 49 9.4 86 86 VRB 3 6 30.24 1024 10 16 0.00 0.00
7:53 am 07:53 Cloudy 53 11.7 49 9.4 86 86 E 5 7 30.26 1025 10 16 0.00 0.00
8:53 am 08:53 Cloudy 54 12.2 49 9.4 83 83 E 5 7 30.27 1025 10 16 0.00 0.00
9:35 am 09:35 Cloudy 55 12.8 49 9.4 80 80 E 6 9 30.27 1025 10 16 0.00 0.00
9:53 am 09:53 Cloudy 56 13.3 49 9.4 77 77 ENE 5 7 30.29 1026 10 16 0.00 0.00
10:06 am 10:06 Cloudy 57 13.9 49 9.4 74 74 VRB 7 11 30.30 1026 10 16 0.00 0.00
10:53 am 10:53 Cloudy 58 14.4 48 8.9 70 70 VRB 5 7 30.29 1026 10 16 0.00 0.00
11:53 am 11:53 Cloudy 59 15 46 7.8 62 62 VRB 5 7 30.26 1025 10 16 0.00 0.00
12:53 pm 12:53 Cloudy 61 16.1 45 7.2 56 56 ESE 8 13 30.22 1024 10 16 0.00 0.00
1:53 pm 13:53 Cloudy 63 17.2 46 7.8 54 54 VRB 5 7 30.18 1022 10 16 0.00 0.00
2:53 pm 14:53 Cloudy 62 16.7 47 8.3 58 58 VRB 3 6 30.17 1022 10 16 0.00 0.00
3:53 pm 15:53 Cloudy 64 17.8 47 8.3 54 54 E 12 19 30.15 1021 10 16 0.00 0.00
4:53 pm 16:53 Cloudy 63 17.2 47 8.3 56 56 VRB 5 7 30.15 1021 10 16 0.00 0.00
5:53 pm 17:53 Cloudy 62 16.7 48 8.9 60 60 E 5 7 30.16 1021 10 16 0.00 0.00
6:53 pm 18:53 Cloudy 61 16.1 49 9.4 65 65 ESE 6 9 30.18 1022 10 16 0.00 0.00
7:53 pm 19:53 Cloudy 61 16.1 48 8.9 63 63 VRB 5 7 30.18 1022 10 16 0.00 0.00
8:24 pm 20:24 Cloudy 60 15.6 46 7.8 60 60 VRB 5 7 30.18 1022 10 16 0.00 0.00
8:33 pm 20:33 Cloudy 60 15.6 47 8.3 62 62 VRB 5 7 30.18 1022 10 16 0.00 0.00
8:53 pm 20:53 Cloudy 60 15.6 48 8.9 65 65 VRB 5 7 30.19 1022 10 16 0.00 0.00
9:53 pm 21:53 Mostly Cloudy 60 15.6 49 9.4 67 67 ENE 8 13 30.19 1022 10 16 0.00 0.00
10:00 pm 22:00 Cloudy 59 15 48 8.9 67 67 ENE 6 9 30.18 1022 10 16 0.00 0.00
10:50 pm 22:50 Cloudy with Light Rain 55 13 54 12 94 94 VRB 5 7 30.18 1022 3 5 0.00 0.03
10:53 pm 22:53 Cloudy with Light Rain 55 12.8 54 12.2 96 96 E 5 7 30.18 1022 4 6 0.00 0.03
11:06 pm 23:06 Cloudy 55 12.8 54 12.2 96 96 VRB 6 9 30.18 1022 7 11 0.00 0.03
11:53 pm 23:53 Cloudy with Mist and Fog 55 12.8 53 11.7 93 93 E 9 15 30.16 1021 5 8 0.00 0.03

Powered by AerisWeather